Flag for Canada Weather past 2 weeks in Kugluktuk, Nunavut Territory, Canada

Now
7 °F

Light snow. Low clouds.


Feels Like: 7 °F
Forecast: 0 / 24 °F
Wind: No wind

Location: Coppermine


UV Index: 0 (Low)

Visibility: 10 mi


Pressure: 30.02 "Hg

Humidity: 85%

Dew point: 3 °F

Location of KugluktukLocation

Historic Weather in Kugluktuk

°F

Kugluktuk temperature yesterday

Maximum temperature yesterday: 23 °F (at 3:00 PM)
Minimum temperature yesterday: 14 °F (at 4:00 AM)
Average temperature yesterday: 19 °F

Past Weeks' High & Low Weather Summary

 TemperatureHumidityPressure
High23 °F (Apr 16, 3:00 PM)91% (Apr 9, 10:00 AM)30.53 "Hg (Apr 9, 10:00 AM)
Low-31 °F (Apr 10, 7:00 AM)45% (Apr 5, 8:00 AM)29.70 "Hg (Apr 8, 12:00 PM)
Average-9 °F71%30.14 "Hg
* Reported Apr 2 6:00 AM — Apr 17 6:00 AM, Kugluktuk, Weather by CustomWeather, © 2014

Note: Actual official high and low records may vary slightly from our data, if they occured in-between our weather recording intervals... More about our weather records

Advertising

Historic Weather Conditions — Data for Previous 24 hours

 ConditionsComfort  
Time TempWeatherWind HumidityBarometerVisibility
6:00 AM
Apr 17
7 °FLight snow. Low clouds.No wind85%30.02 "Hg10 mi
5:00 AM5 °FSnow flurries. Low clouds.No wind85%30.02 "Hg15 mi
4:00 AM7 °FSnow flurries. Passing clouds.5 mph78%30.02 "Hg15 mi
3:00 AM9 °FSnow flurries. Passing clouds.6 mph78%30.03 "Hg15 mi
2:00 AM9 °FSnow flurries. Passing clouds.5 mph85%30.03 "Hg12 mi
1:00 AM12 °FSnow flurries. Passing clouds.5 mph79%30.03 "Hg12 mi
12:00 AM14 °FSnow flurries. Mostly cloudy.5 mph79%30.03 "Hg12 mi
11:00 PM
Apr 16
16 °FSnow flurries. Mostly cloudy.8 mph86%30.03 "Hg12 mi
10:00 PM18 °FSnow flurries. Mostly cloudy.7 mph86%30.02 "Hg12 mi
9:00 PM21 °FLight snow. Mostly cloudy.6 mph80%30.01 "Hg15 mi
8:46 PMN/ALight snow.5 mphN/AN/A15 mi
8:00 PM23 °FPartly sunny.9 mph74%30.01 "Hg15 mi
7:00 PM23 °FPartly sunny.12 mph80%30.00 "Hg15 mi
6:00 PM23 °FPartly sunny.15 mph74%30.00 "Hg15 mi
5:00 PM23 °FBroken clouds.12 mph80%29.99 "Hg15 mi
4:00 PM23 °FPassing clouds.14 mph86%29.99 "Hg15 mi
3:00 PM23 °FPassing clouds.10 mph74%29.99 "Hg15 mi
2:00 PM21 °FBroken clouds.15 mph74%29.99 "Hg15 mi
1:00 PM21 °FPartly sunny.9 mph74%29.98 "Hg15 mi
12:00 PM19 °FBroken clouds.13 mph73%29.99 "Hg15 mi
11:00 AM19 °FPartly sunny.14 mph73%29.99 "Hg15 mi
10:00 AM18 °FPartly sunny.8 mph79%30.01 "Hg15 mi
9:00 AM18 °FScattered clouds.20 mph79%30.00 "Hg15 mi
8:00 AM14 °FScattered clouds.16 mph67%30.01 "Hg15 mi
7:00 AM16 °FPartly cloudy.17 mph67%30.02 "Hg15 mi
Weather by CustomWeather, © 2014

See weather overview